GW3170 Weather Reports


Display with metric or nautical units.
time (UTC)temp
F
wind
direction
speed
MPH
gust
MPH
rain 1hr
in
rain 24hr
in
rain mn
in
humidity
%
barometer
mb
20260901213556 83 0 0.0 2.0 0.00 0.11 0.07 74 1014.3
20260901213107 83 0 0.0 1.0 0.00 0.11 0.07 73 1014.4
20260901212555 82 0 0.0 0.0 0.00 0.11 0.07 73 1014.4
20260901212054 82 0 0.0 1.0 0.00 0.11 0.07 76 1014.5
20260901211603 82 0 0.0 1.0 0.00 0.11 0.07 75 1014.5
20260901211054 82 297 0.0 1.0 0.00 0.11 0.07 75 1014.5
20260901210553 82 0 0.0 1.0 0.00 0.11 0.07 74 1014.4
20260901210100 81 0 0.0 2.0 0.00 0.11 0.07 77 1014.4
20260901205556 80 0 0.0 2.0 0.00 0.11 0.07 78 1014.3
20260901205057 80 288 0.0 2.0 0.00 0.11 0.07 77 1014.5
20260901204602 80 0 0.0 0.0 0.00 0.11 0.07 79 1014.6
20260901204056 80 0 0.0 1.0 0.00 0.11 0.07 79 1014.6
20260901203556 80 0 0.0 2.0 0.00 0.11 0.07 78 1014.6
20260901203106 80 0 0.0 2.0 0.00 0.11 0.07 78 1014.6
20260901202554 80 300 0.0 2.0 0.00 0.11 0.07 77 1014.6
20260901202053 79 0 0.0 3.0 0.00 0.11 0.07 78 1014.5
20260901201600 80 0 1.0 5.0 0.00 0.11 0.07 78 1014.5
20260901201054 80 284 1.0 5.0 0.00 0.11 0.07 76 1014.5
20260901200553 80 283 1.0 5.0 0.00 0.11 0.07 76 1014.6
20260901195556 81 0 1.0 4.0 0.00 0.11 0.07 78 1014.5
20260901195054 81 266 2.0 4.0 0.00 0.11 0.07 76 1014.5
20260901194604 81 322 1.0 3.0 0.00 0.11 0.07 78 1014.5
20260901194055 81 257 2.0 3.0 0.00 0.11 0.07 77 1014.3
20260901193555 81 0 0.0 3.0 0.00 0.11 0.07 77 1014.3
20260901193110 81 278 0.0 3.0 0.00 0.11 0.07 76 1014.3
20260901192557 81 0 0.0 1.0 0.00 0.11 0.07 78 1014.3
20260901192056 81 0 0.0 3.0 0.00 0.11 0.07 79 1014.2
20260901191606 81 0 0.0 3.0 0.00 0.11 0.07 78 1014.2
20260901191054 81 0 0.0 3.0 0.00 0.11 0.07 78 1014.3
20260901190554 81 0 0.0 3.0 0.00 0.11 0.07 79 1014.4
20260901185554 81 0 0.0 2.0 0.00 0.11 0.07 79 1014.5
20260901185053 81 0 0.0 2.0 0.00 0.11 0.07 79 1014.4
20260901184610 81 0 0.0 2.0 0.00 0.11 0.07 79 1014.3
20260901184056 81 0 0.0 2.0 0.00 0.11 0.07 79 1014.2
20260901183556 81 0 0.0 2.0 0.00 0.11 0.07 79 1014.2
20260901183107 81 272 0.0 1.0 0.00 0.11 0.07 81 1014.3
20260901182554 80 0 0.0 2.0 0.00 0.11 0.07 83 1014.2
20260901182054 80 0 0.0 2.0 0.00 0.11 0.07 84 1014.2
20260901181603 80 263 0.0 1.0 0.00 0.11 0.07 83 1014.2
20260901181054 80 137 0.0 1.0 0.00 0.11 0.07 82 1014.1
20260901180559 80 0 0.0 2.0 0.00 0.11 0.07 82 1014.1
20260901175556 80 0 0.0 1.0 0.00 0.11 0.07 82 1014.0
20260901175057 81 0 0.0 1.0 0.00 0.11 0.07 81 1013.9
20260901174602 81 4 0.0 1.0 0.00 0.11 0.07 81 1013.9
20260901174057 81 0 0.0 0.0 0.00 0.11 0.07 82 1013.8
20260901173554 81 0 0.0 0.0 0.00 0.11 0.07 82 1013.8
20260901173104 81 196 0.0 1.0 0.00 0.11 0.07 82 1013.7
20260901172557 81 0 0.0 1.0 0.00 0.11 0.07 82 1013.7
20260901172056 80 0 0.0 1.0 0.00 0.11 0.07 84 1013.7
20260901171607 80 0 0.0 1.0 0.00 0.11 0.07 85 1013.7
20260901171056 79 0 0.0 0.0 0.00 0.11 0.07 86 1013.7
20260901170558 79 0 0.0 0.0 0.00 0.11 0.07 86 1013.7
20260901170106 79 0 0.0 0.0 0.00 0.11 0.07 87 1013.7
20260901165557 79 0 0.0 0.0 0.00 0.11 0.07 86 1013.8
20260901165058 79 0 0.0 1.0 0.00 0.11 0.07 86 1013.8
20260901164611 79 0 0.0 1.0 0.00 0.11 0.07 85 1013.6
20260901164056 79 0 0.0 1.0 0.00 0.11 0.07 84 1013.7
20260901163556 79 0 0.0 0.0 0.00 0.11 0.07 83 1013.7
20260901163116 79 0 0.0 1.0 0.00 0.11 0.07 84 1013.7
20260901162556 79 0 0.0 1.0 0.00 0.11 0.07 85 1013.6
20260901162056 79 0 0.0 3.0 0.00 0.11 0.07 84 1013.6
20260901161601 79 0 1.0 3.0 0.00 0.11 0.07 83 1013.6
20260901161058 79 0 0.0 2.0 0.00 0.11 0.07 84 1013.6
20260901160555 79 221 0.0 2.0 0.00 0.11 0.07 85 1013.6
20260901160107 79 103 0.0 3.0 0.00 0.11 0.07 85 1013.6
20260901155554 78 0 1.0 3.0 0.00 0.12 0.07 86 1013.6
20260901155057 78 130 0.0 1.0 0.00 0.12 0.07 88 1013.5
20260901154607 77 0 0.0 0.0 0.00 0.12 0.07 90 1013.5
20260901154057 77 0 0.0 0.0 0.00 0.12 0.07 91 1013.5
20260901153555 76 0 0.0 1.0 0.00 0.12 0.07 92 1013.5
20260901153105 76 0 0.0 2.0 0.00 0.12 0.07 93 1013.6
20260901152556 75 0 0.0 2.0 0.00 0.12 0.07 92 1013.6
20260901152054 75 229 0.0 2.0 0.00 0.12 0.07 93 1013.6
20260901151604 75 0 0.0 1.0 0.00 0.12 0.07 96 1013.6
20260901151054 74 194 0.0 1.0 0.00 0.12 0.07 96 1013.6
20260901150557 73 0 0.0 1.0 0.00 0.12 0.07 97 1013.5
20260901150109 72 0 0.0 1.0 0.00 0.12 0.07 97 1013.5
20260901145554 72 0 0.0 1.0 0.00 0.16 0.07 97 1013.5
20260901145054 71 0 0.0 1.0 0.00 0.16 0.07 96 1013.4
20260901144603 71 0 0.0 1.0 0.00 0.16 0.07 96 1013.5
20260901144056 70 0 0.0 1.0 0.00 0.16 0.07 96 1013.4
20260901143556 70 0 0.0 1.0 0.00 0.16 0.07 96 1013.6
20260901143109 70 0 0.0 1.0 0.00 0.16 0.07 96 1013.7
20260901142555 70 122 0.0 1.0 0.00 0.16 0.07 96 1013.7
20260901142054 70 0 0.0 0.0 0.00 0.16 0.07 96 1013.8
20260901141602 70 0 0.0 1.0 0.00 0.16 0.07 96 1013.8
20260901141057 70 0 0.0 1.0 0.00 0.16 0.07 96 1013.7
20260901140557 70 0 0.0 0.0 0.00 0.16 0.07 96 1013.7
20260901140100 70 0 0.0 0.0 0.00 0.16 0.07 96 1013.8
20260901135556 70 0 0.0 0.0 0.00 0.17 0.07 96 1013.7
20260901135055 70 0 0.0 0.0 0.00 0.17 0.07 96 1013.6
20260901134631 69 0 0.0 0.0 0.00 0.17 0.07 96 1013.5
20260901134056 69 0 0.0 1.0 0.00 0.17 0.07 96 1013.5
20260901133556 69 0 0.0 1.0 0.00 0.17 0.07 96 1013.5
20260901133104 69 0 0.0 0.0 0.00 0.17 0.07 96 1013.4
20260901132557 69 0 0.0 0.0 0.00 0.17 0.07 96 1013.5
20260901132054 69 0 0.0 0.0 0.00 0.17 0.07 96 1013.6
20260901131600 69 0 0.0 0.0 0.00 0.17 0.07 96 1013.5
20260901131054 69 0 0.0 0.0 0.00 0.17 0.07 96 1013.7
20260901130556 69 0 0.0 0.0 0.00 0.17 0.07 96 1013.6
20260901130112 69 0 0.0 0.0 0.00 0.17 0.07 96 1013.7
20260901125553 69 0 0.0 0.0 0.00 0.17 0.07 96 1013.7
20260901125055 69 0 0.0 0.0 0.00 0.17 0.07 96 1013.7
20260901124608 68 0 0.0 0.0 0.00 0.17 0.07 96 1013.8
20260901124054 68 0 0.0 0.0 0.00 0.17 0.07 96 1013.6
20260901123556 68 0 0.0 0.0 0.00 0.17 0.07 96 1013.7
20260901123103 68 0 0.0 0.0 0.00 0.17 0.07 96 1013.8
20260901122554 68 0 0.0 0.0 0.00 0.17 0.07 96 1013.9
20260901122055 68 0 0.0 0.0 0.00 0.17 0.07 96 1014.0
20260901121601 68 0 0.0 0.0 0.00 0.17 0.07 96 1014.0
20260901121057 67 0 0.0 0.0 0.00 0.17 0.07 96 1014.0
20260901120554 67 0 0.0 0.0 0.00 0.17 0.07 96 1014.0
20260901120106 67 0 0.0 1.0 0.00 0.17 0.07 96 1013.9
20260901115556 67 0 0.0 1.0 0.00 0.17 0.07 96 1014.0
20260901115054 67 0 0.0 0.0 0.00 0.17 0.07 96 1014.0
20260901114612 67 0 0.0 0.0 0.00 0.17 0.07 96 1014.1
20260901114056 67 0 0.0 0.0 0.00 0.17 0.07 96 1014.1
20260901113554 67 0 0.0 0.0 0.00 0.17 0.07 96 1014.1
20260901113140 67 0 0.0 0.0 0.00 0.17 0.07 96 1014.0
20260901112557 67 0 0.0 0.0 0.00 0.17 0.07 96 1013.9
20260901112055 67 0 0.0 0.0 0.00 0.17 0.07 96 1013.9
20260901111606 67 0 0.0 0.0 0.00 0.17 0.07 96 1014.0
20260901111057 66 0 0.0 0.0 0.00 0.17 0.07 96 1014.1
20260901110601 66 0 0.0 0.0 0.00 0.17 0.07 96 1013.9
20260901110108 66 0 0.0 0.0 0.00 0.17 0.07 96 1013.9
20260901105600 66 0 0.0 0.0 0.00 0.17 0.07 96 1014.2
20260901105057 66 0 0.0 0.0 0.00 0.17 0.07 96 1014.4
20260901104606 66 0 0.0 0.0 0.00 0.17 0.07 96 1014.3
20260901104056 66 0 0.0 0.0 0.00 0.17 0.07 96 1014.0
20260901103557 66 0 0.0 0.0 0.00 0.17 0.07 96 1014.0
20260901103105 66 0 0.0 0.0 0.00 0.17 0.07 96 1014.0
20260901102557 66 0 0.0 0.0 0.00 0.17 0.07 96 1013.8
20260901102057 66 0 0.0 0.0 0.00 0.17 0.07 96 1013.7
20260901101616 66 0 0.0 0.0 0.01 0.17 0.07 96 1013.8
20260901101059 66 0 0.0 0.0 0.01 0.17 0.07 96 1013.7
20260901100559 66 0 0.0 0.0 0.01 0.17 0.07 96 1013.7
20260901100117 66 0 0.0 0.0 0.01 0.17 0.07 96 1013.7
20260901095556 66 0 0.0 0.0 0.01 0.17 0.07 96 1013.9
20260901095054 66 0 0.0 0.0 0.01 0.17 0.07 96 1013.9
20260901094600 66 0 0.0 0.0 0.01 0.17 0.07 96 1013.8
20260901094054 66 0 0.0 0.0 0.01 0.17 0.07 96 1013.8
20260901093601 66 0 0.0 0.0 0.01 0.17 0.07 96 1013.9
20260901093107 66 0 0.0 0.0 0.01 0.17 0.07 96 1014.2
20260901092556 66 0 0.0 0.0 0.01 0.17 0.07 96 1014.0
20260901092054 66 0 0.0 0.0 0.01 0.17 0.07 96 1014.2
20260901091604 66 0 0.0 0.0 0.00 0.16 0.06 96 1014.5
20260901091056 66 0 0.0 0.0 0.00 0.16 0.06 96 1014.4
20260901090556 66 0 0.0 0.0 0.00 0.16 0.06 96 1014.5
20260901090109 66 0 0.0 0.0 0.00 0.16 0.06 96 1014.3
20260901085556 66 0 0.0 0.0 0.00 0.16 0.06 96 1014.0
20260901085056 66 0 0.0 0.0 0.00 0.16 0.06 96 1013.9
20260901084601 66 0 0.0 0.0 0.00 0.16 0.06 96 1013.9
20260901084056 66 0 0.0 0.0 0.00 0.16 0.06 96 1013.9
20260901083557 66 0 0.0 0.0 0.00 0.16 0.06 96 1013.9
20260901083106 66 0 0.0 0.0 0.00 0.16 0.06 96 1013.9
20260901082600 66 0 0.0 0.0 0.00 0.16 0.06 96 1014.0
20260901082058 66 0 0.0 0.0 0.00 0.16 0.06 95 1014.0
20260901081616 66 0 0.0 0.0 0.00 0.16 0.06 95 1014.0
20260901081057 66 0 0.0 0.0 0.00 0.16 0.06 95 1013.9
20260901080557 66 0 0.0 0.0 0.00 0.16 0.06 95 1014.0
20260901080105 66 0 0.0 0.0 0.00 0.16 0.06 95 1014.1
20260901075557 66 0 0.0 0.0 0.00 0.16 0.06 95 1014.1
20260901075055 66 0 0.0 0.0 0.00 0.16 0.06 95 1014.4
20260901074604 66 0 0.0 0.0 0.01 0.16 0.06 95 1014.3
20260901074056 66 0 0.0 0.0 0.01 0.16 0.06 95 1014.6
20260901073557 66 0 0.0 0.0 0.03 0.16 0.06 95 1014.6
20260901073105 66 0 0.0 0.0 0.05 0.16 0.06 95 1014.4
20260901072557 66 0 0.0 0.0 0.06 0.16 0.06 95 1014.6
20260901072059 66 0 0.0 0.0 0.06 0.16 0.06 95 1014.7
20260901071604 66 0 0.0 0.0 0.06 0.16 0.06 95 1014.7
20260901071100 66 0 0.0 0.0 0.06 0.16 0.06 95 1014.9
20260901070601 66 0 0.0 0.0 0.06 0.16 0.06 95 1015.0
20260901070108 66 0 0.0 0.0 0.06 0.16 0.06 95 1015.0
20260901065557 66 0 0.0 0.0 0.06 0.16 0.06 95 1015.0
20260901065057 66 0 0.0 0.0 0.06 0.16 0.06 95 1015.2
20260901064605 66 0 0.0 0.0 0.05 0.15 0.05 95 1015.1
20260901064057 66 0 0.0 0.0 0.05 0.15 0.05 95 1015.2
20260901063553 66 0 0.0 0.0 0.03 0.13 0.03 95 1015.3
20260901063105 66 0 0.0 0.0 0.01 0.11 0.01 95 1015.4
20260901062556 66 0 0.0 0.0 0.00 0.10 0.00 95 1015.5
20260901062059 66 0 0.0 0.0 0.00 0.10 0.00 95 1015.5
20260901061604 66 0 0.0 0.0 0.00 0.10 0.00 95 1015.4
20260901061057 66 0 0.0 0.0 0.00 0.10 0.00 95 1015.5
20260901060557 66 0 0.0 0.0 0.00 0.10 0.00 95 1015.4
20260901060114 66 0 0.0 0.0 0.00 0.10 0.00 95 1015.4
20260901055556 66 0 0.0 0.0 0.00 0.10 0.00 95 1015.4
20260901055056 66 0 0.0 0.0 0.00 0.10 0.00 95 1015.4
20260901054602 66 0 0.0 0.0 0.00 0.10 0.00 95 1015.4
20260901054056 66 0 0.0 0.0 0.00 0.10 0.00 95 1015.5
20260901053601 66 0 0.0 0.0 0.00 0.10 0.00 95 1015.6
20260901053123 66 0 0.0 0.0 0.00 0.10 0.00 95 1015.7
20260901052554 66 0 0.0 0.0 0.00 0.10 0.00 95 1015.7
20260901052056 66 0 0.0 0.0 0.00 0.10 0.00 95 1015.7
20260901051608 66 0 0.0 0.0 0.00 0.10 0.00 95 1015.7
20260901051054 66 0 0.0 0.0 0.00 0.10 0.00 95 1015.9
20260901050557 66 0 0.0 0.0 0.00 0.10 0.00 95 1015.8
20260901050108 66 0 0.0 0.0 0.00 0.10 0.00 95 1015.8
20260901045557 66 0 0.0 0.0 0.00 0.10 0.00 95 1015.8
20260901045101 66 0 0.0 0.0 0.00 0.10 0.00 95 1015.8
20260901044635 66 0 0.0 0.0 0.00 0.10 0.00 95 1015.7
20260901044058 66 0 0.0 0.0 0.00 0.10 0.00 95 1015.8
20260901043555 66 0 0.0 0.0 0.00 0.10 0.00 95 1015.8
20260901043119 66 0 0.0 0.0 0.00 0.10 0.00 95 1015.9
20260901042556 66 0 0.0 0.0 0.00 0.10 0.00 95 1015.9
20260901042056 66 0 0.0 0.0 0.00 0.10 0.00 95 1016.0
20260901041605 66 0 0.0 0.0 0.00 0.10 0.00 95 1016.0
20260901041056 66 0 0.0 0.0 0.00 0.10 0.00 95 1016.0
20260901040557 66 0 0.0 0.0 0.00 0.10 0.00 95 1016.1
20260901035556 66 0 0.0 0.0 0.00 0.10 0.10 95 1016.2
20260901035054 66 0 0.0 0.0 0.00 0.10 0.10 95 1016.2
20260901034608 66 0 0.0 0.0 0.00 0.10 0.10 95 1016.1
20260901034100 66 0 0.0 0.0 0.00 0.10 0.10 95 1016.1
20260901033558 66 0 0.0 0.0 0.01 0.10 0.10 95 1016.3
20260901033107 66 0 0.0 0.0 0.01 0.10 0.10 95 1016.2
20260901032600 66 0 0.0 0.0 0.01 0.10 0.10 95 1016.3
20260901032101 66 0 0.0 0.0 0.01 0.10 0.10 95 1016.2
20260901031602 66 0 0.0 0.0 0.01 0.10 0.10 95 1016.2
20260901031057 66 0 0.0 0.0 0.01 0.10 0.10 95 1016.3
20260901030557 66 0 0.0 0.0 0.01 0.10 0.10 95 1016.3
20260901030104 66 0 0.0 0.0 0.01 0.10 0.10 95 1016.4
20260901025557 66 0 0.0 0.0 0.01 0.10 0.10 95 1016.4
20260901025057 66 0 0.0 0.0 0.01 0.10 0.10 95 1016.4
20260901024607 66 0 0.0 0.0 0.01 0.10 0.10 95 1016.4
20260901024058 66 0 0.0 0.0 0.01 0.10 0.10 95 1016.5
20260901023558 66 0 0.0 0.0 0.00 0.09 0.09 95 1016.5
20260901023107 66 0 0.0 0.0 0.00 0.09 0.09 95 1016.4
20260901022556 66 0 0.0 0.0 0.00 0.09 0.09 95 1016.5
20260901022056 66 0 0.0 0.0 0.00 0.09 0.09 95 1016.5
20260901021636 66 0 0.0 0.0 0.00 0.09 0.09 95 1016.5
20260901021057 66 0 0.0 0.0 0.00 0.09 0.09 94 1016.5
20260901020557 66 0 0.0 0.0 0.00 0.09 0.09 94 1016.4
20260901020118 67 0 0.0 0.0 0.00 0.09 0.09 94 1016.4
20260901015556 67 0 0.0 0.0 0.00 0.09 0.09 94 1016.5
20260901015058 67 0 0.0 0.0 0.00 0.09 0.09 94 1016.5
20260901014607 67 0 0.0 0.0 0.00 0.09 0.09 94 1016.6
20260901014056 67 0 0.0 0.0 0.01 0.09 0.09 94 1016.5
20260901013556 67 0 0.0 0.0 0.01 0.09 0.09 94 1016.7
20260901013113 67 0 0.0 0.0 0.01 0.09 0.09 94 1016.8
20260901012559 67 0 0.0 0.0 0.01 0.09 0.09 94 1016.9
20260901012056 67 0 0.0 0.0 0.01 0.09 0.09 94 1016.8
20260901011607 67 0 0.0 0.0 0.01 0.09 0.09 94 1017.0
20260901011059 67 0 0.0 0.0 0.01 0.09 0.09 94 1017.0
20260901010556 67 0 0.0 0.0 0.01 0.09 0.09 94 1016.9
20260901010109 67 0 0.0 0.0 0.01 0.09 0.09 94 1016.8
20260901005557 67 0 0.0 0.0 0.01 0.09 0.09 94 1016.8
20260901005056 67 0 0.0 0.0 0.01 0.09 0.09 94 1016.7
20260901004624 67 0 0.0 0.0 0.01 0.09 0.09 94 1016.7
20260901004056 67 0 0.0 0.0 0.00 0.08 0.08 94 1016.7
20260901003556 67 0 0.0 0.0 0.00 0.08 0.08 94 1016.5
20260901003123 67 0 0.0 0.0 0.00 0.08 0.08 94 1016.6
20260901002556 67 0 0.0 0.0 0.00 0.08 0.08 94 1016.6
20260901002056 67 0 0.0 0.0 0.00 0.08 0.08 94 1016.6
20260901001614 67 0 0.0 0.0 0.00 0.08 0.08 94 1016.6
20260901001057 67 0 0.0 0.0 0.00 0.08 0.08 94 1016.5
20260901000556 67 0 0.0 0.0 0.00 0.08 0.08 94 1016.4
20260901000124 67 0 0.0 0.0 0.00 0.08 0.08 94 1016.4
20260831235556 67 0 0.0 0.0 0.00 0.08 0.08 94 1016.5
20260831235056 67 0 0.0 0.0 0.00 0.08 0.08 94 1016.4
20260831234619 67 0 0.0 0.0 0.00 0.08 0.08 94 1016.5
20260831234057 67 0 0.0 0.0 0.00 0.08 0.08 93 1016.5
20260831233557 67 0 0.0 0.0 0.00 0.08 0.08 93 1016.5
20260831233102 67 0 0.0 0.0 0.01 0.08 0.08 93 1016.5
20260831232557 67 0 0.0 0.0 0.01 0.08 0.08 93 1016.5
20260831232054 67 0 0.0 0.0 0.01 0.08 0.08 93 1016.6
20260831231609 67 0 0.0 0.0 0.01 0.08 0.08 93 1016.6
20260831231059 67 0 0.0 0.0 0.01 0.08 0.08 93 1016.7
20260831230559 67 0 0.0 0.0 0.01 0.08 0.08 93 1016.7
20260831230107 67 0 0.0 0.0 0.01 0.08 0.08 93 1016.8
20260831225556 67 0 0.0 0.0 0.01 0.08 0.08 93 1016.8
20260831225058 67 0 0.0 0.0 0.01 0.08 0.08 93 1016.8
20260831224606 67 0 0.0 0.0 0.01 0.08 0.08 93 1016.7
20260831224101 67 0 0.0 0.0 0.02 0.08 0.08 93 1016.7
20260831223557 67 0 0.0 0.0 0.02 0.08 0.08 93 1016.8
20260831223105 67 0 0.0 0.0 0.01 0.07 0.07 93 1017.0
20260831222557 67 0 0.0 0.0 0.01 0.07 0.07 93 1017.0
20260831222058 67 0 0.0 0.0 0.01 0.07 0.07 93 1016.9
20260831221607 68 0 0.0 0.0 0.01 0.07 0.07 93 1016.8
20260831221057 68 0 0.0 0.0 0.01 0.07 0.07 93 1017.0
20260831220557 68 0 0.0 0.0 0.01 0.07 0.07 93 1017.0
20260831220118 68 0 0.0 0.0 0.01 0.07 0.07 93 1017.1
20260831215559 68 0 0.0 0.0 0.01 0.07 0.07 93 1017.1
20260831215059 68 0 0.0 0.0 0.01 0.07 0.07 92 1017.2
20260831214607 68 0 0.0 0.0 0.01 0.07 0.07 92 1017.1
20260831214057 68 0 0.0 0.0 0.00 0.06 0.06 92 1017.0